501  
ASUS41 KPHI 241313  
RWRPHI  
 
REGIONAL WEATHER ROUNDUP  
NATIONAL WEATHER SERVICE MOUNT HOLLY NJ  
900 AM EDT MON SEP 24 2018  
 
NOTE: "FAIR" INDICATES FEW OR NO CLOUDS BELOW 12,000 FEET WITH NO  
SIGNIFICANT WEATHER AND/OR S TO VISIBILITY
.  
 
* = STATION DOES NOT REPORT PRECIPITATION (E.G. RAIN, SNOW, ETC.)  
OR FOG.
 
 
NJZ015>026-241400-  
SOUTHERN NEW JERSEY  
 
CITY SKY/WX TMP DP RH WIND PRES REMARKS
 
POMONA CLOUDY 66 62 87 E9 30.37R  
MILLVILLE CLOUDY 63 61 93 NE8 30.37R  
WRIGHTSTOWN PTSUNNY 64 61 88 NE13 30.38R  
MOUNT HOLLY CLOUDY 62 61 96 NE6 30.39R  
TRENTON CLOUDY 60 55 83 NE9 30.41R  
 

 
NJZ001>014-241400-  
NORTHERN NEW JERSEY  
 
CITY SKY/WX TMP DP RH WIND PRES REMARKS
 
SUSSEX FAIR 54 51 90 N13 30.46R  
ANDOVER* N/A 52 50 93 VRB6 30.45R  
MORRISTOWN MOSUNNY 57 54 88 NE8 30.45R  
NEWARK PTSUNNY 59 52 77 N13 30.44R  
TETERBORO FAIR 61 51 70 NE7 30.44R  
CALDWELL FAIR 58 50 75 NE10 30.45R  
SOMERVILLE FAIR 59 50 72 VRB3 30.42R  
ALLAIRE* FAIR 63 58 83 NE10 30.42R  
TOMS RIVER* FAIR 64 60 87 NE8 30.40R  
 

 
PAZ043-044-047-054-055-060>062-066>071-241400-  
EASTERN PENNSYLVANIA  
 
CITY SKY/WX TMP DP RH WIND PRES REMARKS
 
PHILADELPHIA LGT RAIN 62 61 96 NE10G21 30.40R FOG  
NORTH PHILA CLOUDY 63 59 87 NE12 30.41R  
BLUE BELL* CLOUDY 59 59 100 NE6 30.41R  
DOYLESTOWN CLOUDY 60 53 77 VRB7 30.41R  
QUAKERTOWN* CLOUDY 61 54 77 NE7 30.42R  
PERKASIE* CLOUDY 59 54 82 E9 30.42R  
POTTSTOWN CLOUDY 60 57 89 E9 30.42R  
LANCASTER CLOUDY 62 61 96 E9 30.39R FOG  
COATESVILLE FOG 59 59 100 E12G18 30.40R VSB 1  
READING CLOUDY 61 57 87 N3 30.39R  
ALLENTOWN CLOUDY 58 50 75 E12 30.42R  
MOUNT POCONO FAIR 51 47 86 E9G18 30.44R  
LEHIGHTON PTSUNNY 54 50 87 NE3 30.45R  
WILKES BARRE FAIR 56 49 77 E5 30.43R  
 

 
DEZALL-MDZ008-012-015-019-020-241400-  
DELAWARE AND EASTERN MARYLAND  
 
CITY SKY/WX TMP DP RH WIND PRES REMARKS
 
WILMINGTON CLOUDY 63 61 93 E8 30.39R  
DOVER CLOUDY 65 61 89 NE14 30.35R  
GEORGETOWN LGT RAIN 66 66 100 E10 30.34R  
EASTON LGT RAIN 66 64 94 E7 30.36R  
ABERDEEN CLOUDY 63 61 94 E9 30.36R  
PATUXENT LGT RAIN 67 64 90 E9 30.30R FOG  
OCEAN CITY LGT RAIN 67 65 93 E20G28 30.32R FOG  
WALLOPS ISLAND HVY RAIN 69 65 86 NE20 30.29 FOG  
SALISBURY CLOUDY 66 66 100 E14 30.31R  
 

 
PAZ001-021-NYZ056-072-MDZ011-DCZ001-241400-  
OTHER NEARBY LOCATIONS  
 
CITY SKY/WX TMP DP RH WIND PRES REMARKS
 
HARRISBURG CLOUDY 62 58 86 E7 30.37R FOG  
STATE COLLEGE CLOUDY 59 54 82 NE6 30.38R  
WILLIAMSPORT PTSUNNY 53 51 93 CALM 30.39S  
BINGHAMTON FOG 46 46 100 E8 30.43R VSB<1/4  
NEW YORK CITY FAIR 59 50 72 NE10 30.47R  
BALTIMORE DRZL/FOG 63 62 97 E10 30.35R VSB 1  
WASHINGTON DC LGT RAIN 65 62 90 NE10 30.34R FOG  
 

 
 
 
CLICK HERE TO GO TO PREVIOUS BULLETINS.

The Nexlab PA Page
The Nexlab NJ Page
The Nexlab DE Page
The Nexlab MD Page Main Text Page